Weather History for KBWD - October, 2012

Change the Weather History Date:

Friday, October 5, 2012

  Actual Average (KABI) Record (KABI)
Temperature  
Mean Temperature 70 °F 69 °F  
Max Temperature 82 °F 81 °F 99 °F (1937)
Min Temperature 57 °F 58 °F 39 °F (1932)
Degree Days  
Heating Degree Days 0 2  
Month to date heating degree days 6  
Since 1 July heating degree days 17  
Cooling Degree Days 4 6  
Month to date cooling degree days 31  
Year to date cooling degree days 2302  
Growing Degree Days 20 (Base 50)    
Moisture  
Dew Point 55 °F    
Average Humidity 65    
Maximum Humidity 82    
Minimum Humidity 48    
Precipitation  
Precipitation 0.00 in 0.09 in 2.60 in (1986)
Month to date precipitation 0.43  
Year to date precipitation 19.63  
Sea Level Pressure  
Sea Level Pressure 30.08 in    
Wind  
Wind Speed 6 mph (North)    
Max Wind Speed 13 mph    
Max Gust Speed 20 mph    
Visibility 10 miles    
Events      
T = Trace of Precipitation, MM = Missing Value Source: NWS Daily Summary

Daily Weather History Graph

Daily Weather History Graph

Search for Another Location

Airport or City:

Trip Planner

Search our weather history database for the weather conditions in past years. The results will help you decide how hot, cold, wet, or windy it might be!

Date:

Astronomy

Oct. 05, 2012 Rise Set
Actual Time 7:32 AM CDT 7:14 PM CDT
Civil Twilight 7:08 AM CDT 7:39 PM CDT
Nautical Twilight 6:39 AM CDT 8:07 PM CDT
Astronomical Twilight 6:11 AM CDT 8:35 PM CDT
Moon 10:56 PM CDT (10/5) 12:24 PM CDT (10/5)
Length of Visible Light 12h 31m
Length of Day
11h 42m
Waning Gibbous, 74% of the Moon is Illuminated
Oct 5
Waning Gibbous
Oct 8
Last Quarter
Oct 15
New
Oct 21
First Quarter
Oct 29
Full

Hourly Weather History & Observations

Time (CDT) Temp. Heat Index Dew Point Humidity Pressure Visibility Wind Dir Wind Speed Gust Speed Precip Events Conditions
12:15 AM 60.8 °F - 50.0 °F 68% 30.14 in 10.0 mi NNW 8.1 mph - N/A   Scattered Clouds
12:35 AM 60.8 °F - 50.0 °F 68% 30.14 in 10.0 mi NNW 9.2 mph - N/A   Mostly Cloudy
12:55 AM 60.8 °F - 50.0 °F 68% 30.13 in 10.0 mi NNW 8.1 mph - N/A   Overcast
1:15 AM 59.0 °F - 50.0 °F 72% 30.13 in 10.0 mi North 9.2 mph - N/A   Overcast
1:35 AM 59.0 °F - 50.0 °F 72% 30.13 in 10.0 mi North 6.9 mph - N/A   Overcast
1:55 AM 59.0 °F - 50.0 °F 72% 30.13 in 10.0 mi North 6.9 mph - N/A   Overcast
2:15 AM 59.0 °F - 50.0 °F 72% 30.12 in 10.0 mi North 5.8 mph - N/A   Overcast
2:35 AM 59.0 °F - 50.0 °F 72% 30.12 in 10.0 mi North 5.8 mph - N/A   Overcast
2:55 AM 59.0 °F - 50.0 °F 72% 30.12 in 10.0 mi NNW 4.6 mph - N/A   Overcast
3:15 AM 59.0 °F - 50.0 °F 72% 30.12 in 10.0 mi NW 4.6 mph - N/A   Overcast
3:35 AM 59.0 °F - 50.0 °F 72% 30.12 in 10.0 mi NW 5.8 mph - N/A   Overcast
3:55 AM 57.2 °F - 50.0 °F 77% 30.11 in 10.0 mi NW 5.8 mph - N/A   Mostly Cloudy
4:15 AM 57.2 °F - 50.0 °F 77% 30.11 in 10.0 mi NW 4.6 mph - N/A   Mostly Cloudy
4:35 AM 57.2 °F - 50.0 °F 77% 30.11 in 10.0 mi NW 4.6 mph - N/A   Mostly Cloudy
4:55 AM 57.2 °F - 50.0 °F 77% 30.11 in 10.0 mi NW 4.6 mph - N/A   Overcast
5:15 AM 57.2 °F - 50.0 °F 77% 30.11 in 10.0 mi NW 5.8 mph - N/A   Overcast
5:35 AM 57.2 °F - 50.0 °F 77% 30.11 in 10.0 mi NW 5.8 mph - N/A   Overcast
5:55 AM 59.0 °F - 50.0 °F 72% 30.12 in 10.0 mi NNW 4.6 mph - N/A   Overcast
6:15 AM 59.0 °F - 50.0 °F 72% 30.12 in 10.0 mi North 3.5 mph - N/A   Overcast
6:35 AM 59.0 °F - 51.8 °F 77% 30.11 in 10.0 mi North 3.5 mph - N/A   Overcast
6:55 AM 59.0 °F - 50.0 °F 72% 30.11 in 10.0 mi North 5.8 mph - N/A   Overcast
7:15 AM 59.0 °F - 50.0 °F 72% 30.11 in 10.0 mi North 5.8 mph - N/A   Overcast
7:55 AM 60.8 °F - 50.0 °F 68% 30.12 in 10.0 mi NNE 4.6 mph - N/A   Overcast
8:35 AM 62.6 °F - 50.0 °F 63% 30.13 in 10.0 mi Calm Calm - N/A   Overcast
8:55 AM 62.6 °F - 50.0 °F 63% 30.13 in 10.0 mi Calm Calm - N/A   Overcast
9:35 AM 64.4 °F - 51.8 °F 64% 30.13 in 10.0 mi Calm Calm - N/A   Overcast
9:55 AM 64.4 °F - 51.8 °F 64% 30.14 in 10.0 mi East 3.5 mph - N/A   Overcast
10:15 AM 64.4 °F - 53.6 °F 68% 30.14 in 10.0 mi Calm Calm - N/A   Overcast
10:35 AM 66.2 °F - 53.6 °F 64% 30.13 in 10.0 mi Calm Calm - N/A   Overcast
10:55 AM 66.2 °F - 53.6 °F 64% 30.13 in 10.0 mi Calm Calm - N/A   Overcast
11:15 AM 68.0 °F - 53.6 °F 60% 30.13 in 10.0 mi Calm Calm - N/A   Overcast
11:55 AM 71.6 °F - 55.4 °F 57% 30.13 in 10.0 mi NNW 3.5 mph - N/A   Overcast
12:15 PM 71.6 °F - 57.2 °F 60% 30.12 in 10.0 mi Calm Calm - N/A   Overcast
12:35 PM 73.4 °F - 57.2 °F 57% 30.12 in 10.0 mi SW 4.6 mph - N/A   Overcast
12:55 PM 73.4 °F - 59.0 °F 61% 30.10 in 10.0 mi South 6.9 mph - N/A   Mostly Cloudy
1:15 PM 75.2 °F - 59.0 °F 57% 30.09 in 10.0 mi WSW 6.9 mph - N/A   Clear
1:35 PM 75.2 °F - 59.0 °F 57% 30.09 in 10.0 mi Calm Calm - N/A   Clear
1:55 PM 75.2 °F - 59.0 °F 57% 30.07 in 10.0 mi WSW 3.5 mph - N/A   Clear
2:15 PM 77.0 °F - 59.0 °F 54% 30.06 in 10.0 mi Calm Calm - N/A   Clear
2:35 PM 78.8 °F - 59.0 °F 51% 30.05 in 10.0 mi West 3.5 mph - N/A   Clear
3:15 PM 80.6 °F 81.1 °F 59.0 °F 48% 30.03 in 10.0 mi South 4.6 mph - N/A   Clear
3:35 PM 80.6 °F 81.5 °F 60.8 °F 51% 30.02 in 10.0 mi North 4.6 mph - N/A   Clear
3:55 PM 82.4 °F 82.9 °F 60.8 °F 48% 30.02 in 10.0 mi NW 9.2 mph - N/A   Clear
4:15 PM 80.6 °F 81.5 °F 60.8 °F 51% 30.01 in 10.0 mi NNW 9.2 mph - N/A   Clear
4:35 PM 80.6 °F 81.5 °F 60.8 °F 51% 30.01 in 10.0 mi NW 10.4 mph - N/A   Clear
4:55 PM 80.6 °F 81.5 °F 60.8 °F 51% 30.00 in 10.0 mi North 5.8 mph - N/A   Clear
5:15 PM 80.6 °F 81.5 °F 60.8 °F 51% 29.99 in 10.0 mi NNW 3.5 mph - N/A   Clear
5:35 PM 80.6 °F 81.5 °F 60.8 °F 51% 29.99 in 10.0 mi North 5.8 mph - N/A   Clear
5:55 PM 80.6 °F 81.5 °F 60.8 °F 51% 29.99 in 10.0 mi North 6.9 mph - N/A   Clear
6:15 PM 80.6 °F 81.5 °F 60.8 °F 51% 29.99 in 10.0 mi North 8.1 mph - N/A   Clear
6:35 PM 78.8 °F - 62.6 °F 57% 29.99 in 10.0 mi North 12.7 mph 17.3 mph N/A   Clear
6:55 PM 77.0 °F - 62.6 °F 61% 30.00 in 10.0 mi North 10.4 mph 18.4 mph N/A   Clear
7:15 PM 75.2 °F - 60.8 °F 61% 30.00 in 10.0 mi NNE 12.7 mph - N/A   Clear
7:35 PM 73.4 °F - 60.8 °F 65% 30.00 in 10.0 mi NNE 8.1 mph - N/A   Clear
7:55 PM 73.4 °F - 60.8 °F 65% 30.01 in 10.0 mi NNE 5.8 mph - N/A   Clear
8:15 PM 71.6 °F - 59.0 °F 64% 30.02 in 10.0 mi NNE 12.7 mph 19.6 mph N/A   Clear
8:35 PM 68.0 °F - 57.2 °F 68% 30.04 in 10.0 mi NNE 8.1 mph 17.3 mph N/A   Clear
8:55 PM 68.0 °F - 57.2 °F 68% 30.05 in 10.0 mi NNE 6.9 mph - N/A   Clear
9:15 PM 68.0 °F - 57.2 °F 68% 30.05 in 10.0 mi NNE 11.5 mph 16.1 mph N/A   Clear
9:35 PM 66.2 °F - 57.2 °F 73% 30.06 in 10.0 mi NNE 9.2 mph 16.1 mph N/A   Clear
9:55 PM 66.2 °F - 57.2 °F 73% 30.07 in 10.0 mi NNE 10.4 mph - N/A   Clear
10:15 PM 64.4 °F - 57.2 °F 77% 30.07 in 10.0 mi NNE 10.4 mph - N/A   Clear
10:35 PM 64.4 °F - 55.4 °F 73% 30.08 in 10.0 mi NNE 11.5 mph 18.4 mph N/A   Clear
10:55 PM 62.6 °F - 55.4 °F 77% 30.08 in 10.0 mi NNE 10.4 mph 18.4 mph N/A   Clear
11:15 PM 62.6 °F - 55.4 °F 77% 30.08 in 10.0 mi NE 8.1 mph - N/A   Clear
11:35 PM 60.8 °F - 53.6 °F 77% 30.09 in 10.0 mi NE 10.4 mph - N/A   Clear
11:55 PM 59.0 °F - 53.6 °F 82% 30.09 in 10.0 mi NNE 8.1 mph - N/A   Clear